COSMOS 1798

Satellite information

Favourite Embed

Satellite Type and Status

PAYLOADIN ORBIT

Key statistics

Satellite COSMOS 1798 at a glance.

Uptime

14109

Days in orbit

Revolutions

≈ 12.5

Per day

Orbit

LEO

Low Earth Orbit

Inclination

74.0

Latest

Satellite identification and parameters

Extended collection of information and parameters for COSMOS 1798.

Object identification

Identified? True

Debris? False

Object name: COSMOS 1798

International designator: 1986-092E

Object number (NORAD): 17142

Object ID (CCSDS): 17142

Country: COMMONWEALTH OF INDEPENDENT STATES (CIS)

Current information (Y/N): Y

RCS size: MEDIUM

Orbital parameters

Period: 114.881 minutes

Inclination: 74.0151 deg

SMA: 7828.155 km

Apoapsis: 1472.098 km

Periapsis: 1427.942 km

RAAN: 292.7741 deg

Eccentricy: 0.0028203

Argument of periapsis: 39.7113 deg

Mean anomaly: 72.2739 deg

Mean motion: 12.53469088 rev/day

Mean motion (dot): -0.00000023 rev/day2

B* drag term: -0.000042573 1/REarth

Two-line elements (TLE)

Creation date: July 8, 2025, 2:27 a.m.

Reference frame: TEME

Reference center: EARTH

Epoch: July 7, 2025, 5:21 p.m. UTC

TLE line 0: 0 COSMOS 1798

TLE line 1: 1 17142U 86092E 25188.72333681 -.00000023 00000-0 -42573-4 0 9999

TLE line 2: 2 17142 74.0151 292.7741 0028203 39.7113 72.2739 12.53469088767495

Live tracking on map

Real-time ground track for satellite COSMOS 1798.

In-orbit conjunctions

A list of the most updated potential collisions computed for object COSMOS 1798.

Target Orbit TCA Probability of collision Miss distance Type
THORAD DELTA 1 DEB SSO 2025-01-19 13:40:37 0.0002623428 282.0 (m) DEBRIS
COSMOS 570 LEO 2024-12-31 10:40:31 0.0001674517 131.0 (m) PAYLOAD

Associated space launch

Military communications satellites

COSMOS 1798 was lifted into orbit during the mission ‘Kosmos-3M | Strela-1M 313-320’, on board a Kosmos-3M space rocket.

The launch took place on Nov. 21, 1986, 2 a.m. from 132/2.

For more information about the launch, click the button.

Launch to space Kosmos-3M | Strela-1M 313-320
Kosmos-3M | Strela-1M 313-320

Agency: N/A

Status: Launch Successful

Launch date: Nov. 21, 1986, 2 a.m. UTC

Rocket: Kosmos-3M

Launch pad: 132/2

Location: Plesetsk Cosmodrome, Russian Federation

...

Latest news about this satellite

There are no fresh news available about this satellite. Check back as we update our databases every day.


Newsletter sign-up

Weekly statistics, charts and insights to help you stay on top of the space industry.